Content
SEND FEEDBACK

Daily
Averages
Monthly
Summary
United States of America

GIBSON, NORTH CAROLINA


Home > North America > United States > North Carolina
Elevation: 208 feet     Latitude: 34 45N     Longitude: 079 27W

WEATHER
 
SELECT A DAY
Number of Records: 172,031;   Date Range: 6/24/98 - 9/21/14
 
SHARE

PRINT THIS DATA

[ ← Previous Day ]
WEATHER ALMANAC - JANUARY 31, 2013
[ Next Day → ]
[ °C ]   °F
Weather ElementAverageHighLow
Temperature47.2 °F53.6 °F (3:44 am)36 °F (9:52 pm)
Dewpoint29.9 °F48 °F (1:52 am)19.9 °F (3:52 pm)
Humidity54 %86 % (1:52 am)28 % (3:52 pm)
Barometer29.88 in30.08 in (9:52 pm)29.62 in (1:52 am)
Wind Speed14.7 mph27.6 mph (4:52 am)
Wind Gust35.7 mph (4:52 am)
Weather ElementAverage
Visibility10 mi
Wind DirectionWSW (251.7 °)

Weather ElementTotal
Precipitation0.04 in
Heating Degree Days20.2 (Base 65)
Averaged from 24 records on January 31, 2013
WEATHER CONDITIONS BREAKOUT
WIND DIRECTION BREAKOUT
WEATHER BY HOUR - JANUARY 31, 2013
[ °C ]   °F
Local TimeTemperatureDewpointHumidityBarometerVisibilityWind DirectionWind SpeedGust SpeedPrecipitationEventsConditions
1:52 AM52.0 °F48.0 °F86 %29.62 in10.0 miWSW (250°)13.8 mph23.0 mph0.04 inOvercast
2:52 AM53.1 °F46.0 °F77 %29.63 in10.0 miWSW (250°)19.6 mph28.8 mphOvercast
3:44 AM53.6 °F46.4 °F77 %29.65 in10.0 miWSW (250°)17.3 mph27.6 mphOvercast
3:52 AM52.0 °F46.0 °F80 %29.65 in10.0 miWest (260°)19.6 mph27.6 mphMostly Cloudy
4:52 AM50.0 °F37.9 °F63 %29.68 in10.0 miWest (260°)27.6 mph35.7 mphClear
5:52 AM46.9 °F34.0 °F61 %29.72 in10.0 miWest (260°)20.7 mph28.8 mphClear
6:52 AM46.0 °F33.1 °F61 %29.78 in10.0 miWest (270°)16.1 mph25.3 mphMostly Cloudy
7:52 AM44.1 °F33.1 °F65 %29.83 in10.0 miWest (270°)17.3 mph26.5 mphClear
8:52 AM46.0 °F33.1 °F61 %29.87 in10.0 miWest (280°)20.7 mph26.5 mphClear
9:52 AM48.0 °F30.0 °F50 %29.91 in10.0 miWNW (290°)15.0 mph26.5 mphClear
10:52 AM48.9 °F24.1 °F38 %29.93 in10.0 miWNW (290°)20.7 mph31.1 mphClear
11:52 AM51.1 °F28.0 °F41 %29.91 in10.0 miWest (270°)13.8 mph23.0 mphClear
12:52 PM52.0 °F24.1 °F34 %29.91 in10.0 miWest (270°)17.3 mph27.6 mphClear
1:52 PM53.1 °F23.0 °F31 %29.91 in10.0 miWest (270°)20.7 mph31.1 mphClear
2:52 PM53.1 °F21.0 °F29 %29.91 in10.0 miWest (260°)16.1 mph31.1 mphClear
3:52 PM52.0 °F19.9 °F28 %29.94 in10.0 miWest (270°)18.4 mph29.9 mph
4:52 PM50.0 °F19.9 °F31 %29.98 in10.0 miWNW (290°)13.8 mph26.5 mphClear
5:52 PM48.0 °F21.0 °F34 %29.99 in10.0 miWest (270°)12.7 mphClear
6:52 PM41.0 °F21.9 °F47 %30.02 in10.0 miWSW (250°)5.8 mphClear
7:52 PM39.9 °F24.1 °F53 %30.05 in10.0 miSW (230°)5.8 mphClear
8:52 PM37.9 °F25.0 °F60 %30.05 in10.0 miWSW (250°)4.6 mphClear
9:52 PM36.0 °F26.1 °F67 %30.08 in10.0 miCalmClear
10:52 PM37.0 °F26.1 °F65 %30.07 in10.0 miWSW (240°)8.1 mphClear
11:52 PM39.9 °F26.1 °F58 %30.08 in10.0 miWSW (240°)8.1 mphClear
Hourly data recorded from KMEB, located miles away from Gibson, North Carolina







STORIES FROM OUR PARTNERS